Santa Rosa, CA

3:43 PM PDT on May 25, 2017 (GMT -0700)
Sonoma County

Weather History for KSTS - June, 2013

Change the Weather History Date:

Sunday, June 16, 2013

  Actual Average Record
Temperature  
Mean Temperature 67 °F 66 °F  
Max Temperature 89 °F 82 °F 103 °F (2012)
Min Temperature 45 °F 50 °F 41 °F (2002)
Degree Days  
Heating Degree Days 0    
Month to date heating degree days 26  
Since 1 June heating degree days 26  
Since 1 July heating degree days 2694  
Cooling Degree Days 2    
Month to date cooling degree days 35  
Year to date cooling degree days 90  
Since 1 June cooling degree days 35  
Growing Degree Days 18 (Base 50)    
Moisture  
Dew Point 46 °F    
Average Humidity 56    
Maximum Humidity 93    
Minimum Humidity 19    
Precipitation  
Precipitation 0.00 in 0.00 in 0.43 in (2005)
Month to date precipitation 0.09 0.15  
Year to date precipitation 5.11 22.00  
Since 1 July precipitation 27.52  
Sea Level Pressure  
Sea Level Pressure 30.00 in    
Wind  
Wind Speed 5 mph (SW)    
Max Wind Speed 18 mph    
Max Gust Speed 25 mph    
Visibility 8 miles    
Events      
T = Trace of Precipitation, MM = Missing Value Source: NWS Daily Summary

Daily Weather History Graph

Daily Weather History Graph

Search for Another Location

Airport or City:

Trip Planner

Search our weather history database for the weather conditions in past years. The results will help you decide how hot, cold, wet, or windy it might be!

Date:

Astronomy

Jun. 16, 2013 Rise Set
Actual Time 5:46 AM PDT 8:37 PM PDT
Civil Twilight 5:14 AM PDT 9:09 PM PDT
Nautical Twilight 4:34 AM PDT 9:49 PM PDT
Astronomical Twilight 3:49 AM PDT 10:35 PM PDT
Moon 1:23 PM PDT (6/16) 12:49 AM PDT (6/16)
Length of Visible Light 15h 54m
Length of Day
14h 50m
Waxing Crescent, 51% of the Moon is Illuminated
Jun 16
Waxing Crescent
Jun 23
Full
Jun 29
Last Quarter
Jul 8
New
Jul 15
First Quarter

Hourly Weather History & Observations

Time (PDT) Temp. Dew Point Humidity Pressure Visibility Wind Dir Wind Speed Gust Speed Precip Events Conditions
12:53 AM 51.1 °F 46.9 °F 86% 29.96 in 7.0 mi Calm Calm - N/A   Clear
1:53 AM 50.0 °F 46.0 °F 86% 29.96 in 7.0 mi Calm Calm - N/A   Clear
2:53 AM 48.0 °F 45.0 °F 89% 29.96 in 6.0 mi Calm Calm - N/A   Clear
3:53 AM 46.9 °F 45.0 °F 93% 29.97 in 5.0 mi Calm Calm - N/A   Clear
4:53 AM 46.9 °F 45.0 °F 93% 29.98 in 6.0 mi Calm Calm - N/A   Clear
5:53 AM 46.0 °F 44.1 °F 93% 30.00 in 4.0 mi Calm Calm - N/A   Clear
6:53 AM 48.0 °F 46.0 °F 93% 30.01 in 5.0 mi Calm Calm - N/A   Clear
7:53 AM 53.1 °F 48.0 °F 83% 30.02 in 6.0 mi Calm Calm - N/A   Haze
8:53 AM 61.0 °F 48.0 °F 62% 30.03 in 7.0 mi SSE 3.5 mph - N/A   Clear
9:53 AM 66.0 °F 46.9 °F 50% 30.04 in 8.0 mi Variable 4.6 mph - N/A   Clear
10:53 AM 72.0 °F 48.0 °F 43% 30.03 in 8.0 mi Calm Calm - N/A   Clear
11:53 AM 78.1 °F 48.0 °F 35% 30.02 in 10.0 mi Calm Calm - N/A   Clear
12:53 PM 82.0 °F 48.0 °F 30% 30.01 in 9.0 mi South 4.6 mph - N/A   Clear
1:53 PM 87.1 °F 50.0 °F 28% 30.00 in 10.0 mi South 8.1 mph - N/A   Clear
2:53 PM 89.1 °F 48.0 °F 24% 29.99 in 9.0 mi SW 9.2 mph - N/A   Clear
3:53 PM 89.1 °F 44.1 °F 21% 29.98 in 9.0 mi WSW 16.1 mph 19.6 mph N/A   Clear
4:53 PM 87.1 °F 44.1 °F 22% 29.98 in 10.0 mi West 16.1 mph 21.9 mph N/A   Clear
5:53 PM 86.0 °F 39.9 °F 20% 29.98 in 10.0 mi West 13.8 mph - N/A   Clear
6:53 PM 82.0 °F 43.0 °F 25% 29.99 in 10.0 mi WNW 15.0 mph - N/A   Clear
7:53 PM 78.1 °F 43.0 °F 29% 30.00 in 10.0 mi NW 8.1 mph - N/A   Clear
8:53 PM 72.0 °F 46.0 °F 40% 30.01 in 10.0 mi NNW 8.1 mph - N/A   Clear
9:53 PM 64.9 °F 48.0 °F 54% 30.02 in 10.0 mi SSE 4.6 mph - N/A   Clear
10:53 PM 60.1 °F 46.9 °F 62% 30.03 in 10.0 mi SSE 5.8 mph - N/A   Clear
11:53 PM 57.0 °F 46.9 °F 69% 30.04 in 9.0 mi SSE 5.8 mph - N/A   Clear